Home > Weather > Nome > Past weeks

Flag for U.S.A. Weather for the Past 2 Weeks in Nome, Alaska, U.S.A.

Now
27 °F

Ice fog.


Feels Like: 15 °F
Forecast: 22 / 27 °F
Wind: 15 mph from East

Location: Nome Airport

Current Time: Feb 7, 2016 at 5:13:47 AM

Latest Report: Feb 7, 2016 at 4:53 AM


Visibility: 2 mi

Pressure: 29.75 "Hg

Humidity: 96%

Dew point: 26 °F

Location of NomeLocation

Historic Weather in Nome — Graph

°F

Nome Temperature Yesterday

Maximum temperature yesterday: 27 °F (at 11:00 AM)
Minimum temperature yesterday: 23 °F (at 12:53 AM)
Average temperature yesterday: 25 °F

High & Low Weather Summary for the Past Weeks

 TemperatureHumidityPressure
High33 °F (Jan 31, 12:53 PM)100% (Feb 6, 9:55 AM)29.88 "Hg (Feb 6, 9:55 AM)
Low-13 °F (Jan 23, 10:53 PM)45% (Feb 3, 10:53 PM)28.79 "Hg (Jan 28, 8:56 AM)
Average20 °F77%29.30 "Hg
* Reported Jan 23 3:53 AM — Feb 7 3:53 AM, Nome, Weather by CustomWeather, © 2016

Note: Actual official high and low records may vary slightly from our data, if they occured in-between our weather recording intervals... More about our weather records

Advertising

Nome Weather History for the Previous 24 Hours

 ConditionsComfort  
Time TempWeatherWind HumidityBarometerVisibility
3:53 AM
Sun, Feb 7
26 °FIce fog.16 mph96%29.75 "Hg2 mi
3:02 AM25 °FLight snow. Ice fog.15 mph92%29.73 "Hg2 mi
2:53 AM25 °FLight snow. Ice fog.14 mph92%29.73 "Hg3 mi
1:52 AM24 °FLight snow. Ice fog.9 mph96%29.72 "Hg1 mi
12:53 AM23 °FIce fog.7 mph96%29.73 "Hg3 mi
11:53 PM
Sat, Feb 6
23 °FLow clouds.8 mph92%29.72 "Hg10 mi
10:53 PM23 °FOvercast.12 mph88%29.70 "Hg10 mi
9:53 PM23 °FOvercast.12 mph92%29.67 "Hg10 mi
8:53 PM24 °FLight snow. Low clouds.12 mph91%29.64 "Hg7 mi
7:53 PM24 °FIce fog.13 mph91%29.61 "Hg4 mi
6:53 PM24 °FIce fog.14 mph91%29.59 "Hg2 mi
5:53 PM25 °FOvercast.15 mph88%29.56 "Hg10 mi
4:53 PM26 °FOvercast.17 mph84%29.54 "Hg10 mi
3:53 PM26 °FLight snow. Mostly cloudy.15 mph88%29.53 "Hg7 mi
2:53 PM26 °FLight snow. Ice fog.13 mph92%29.52 "Hg1 mi
1:53 PM26 °FLight snow. Ice fog.14 mph96%29.50 "Hg1 mi
12:53 PM27 °FLight snow. Ice fog.15 mph92%29.48 "Hg2 mi
11:53 AM27 °FIce fog.13 mph96%29.45 "Hg6 mi
11:00 AM27 °FLight snow. Ice fog.12 mph92%29.43 "Hg2 mi
9:55 AM26 °FLight freezing rain. Overcast.12 mph100%29.41 "Hg2 mi
9:04 AM26 °FLight snow. Ice fog.15 mph96%29.39 "Hg1 mi
7:53 AM25 °FLight snow. Overcast.13 mph92%29.36 "Hg2 mi
6:53 AM24 °FLight snow. Ice fog.13 mph91%29.34 "Hg1 mi
5:53 AM24 °FLight snow. Ice fog.8 mph91%29.34 "Hg1 mi
Weather by CustomWeather, © 2016

See weather overviewHow to use our weather pages